Weather in Nikolaev

Ukraine / Khmelnitsky District     49˚34′54″N   26˚50′25″E
temp.,
°C
wind,
m/s
gust,
m/s
humid.,
%
clouds,
%
prec.,
mm/h
press.,
hPa
HPBL,
m
17 january, sun
sun1723:00−12˚ssw239118 0.0 101790
02:00−12˚sw369417 0.0 1016167
05:00−10˚wsw369598 0.1 1015227
08:00−10˚w369687 0.1 1015197
11:00−8˚nw459097 0.1 1017415
14:00−7˚nw478898 0.3 1016617
17:00−10˚n4692100 0.3 1017325
20:00−12˚nnw5992100 0.9 1018572
18 january, mon
mon1823:00−13˚nnw5889100 0.4 1019577
02:00−15˚nnw5890100 0.5 1019536
05:00−15˚nw5890100 0.1 1020513
08:00−16˚nw5892100 0.1 1021473
11:00−16˚nw4789100 0.1 1022441
14:00−15˚nw5789100 0.1 1021462
17:00−15˚nw4793100 0.0 1022407
20:00−16˚nw379499 0.1 1022298
19 january, tue
tue1923:00−17˚nw259421 0.0 1023186
02:00−17˚wnw129311 0.0 102335
05:00−16˚w229035 0.0 102259
08:00−15˚wsw239454 0.0 102272
11:00−11˚sw348857 0.0 1021210
14:00−9˚sw369053 0.0 1020275
17:00−8˚ssw369599 0.4 1019230
20:00−8˚ssw379691 0.8 1018153
20 january, wed
wed2023:00−7˚ssw479596 0.4 1018246
02:00−7˚s359498 0.8 1017108
05:00−7˚s4688100 0.0 1016137
08:00−6˚s4887100 0.0 1016185
11:00−3˚s5984100 0.0 1016294
14:00−2˚s5896100 0.4 1016292
17:00−2˚s4798100 1.4 1016243
20:00−2˚s489799 1.9 1017189
21 january, thu
thu2123:00−4˚s499431 0.0 1017156
02:00−4˚s479122 0.0 101798
05:00−3˚s478831 0.0 1016101
08:00−3˚s588719 0.0 1017132
11:00s598621 0.0 1016207
14:00+1˚s5119016 0.0 1016223
17:00s5118779 0.0 1016155
20:00s6118578 0.0 1016190